{"data":{"norad_id":62895,"intl_designator":"2025-024S","name":"STARLINK-32901","alt_names":[],"object_type":"PAYLOAD","status":"ACTIVE","operator":null,"country":"US","launch_date":"2025-02-04","launch_site_code":"AFETR","launch_vehicle":null,"mission":null,"orbit_class":"UNKNOWN","rcs_meters":null,"size_class":null,"mass_kg":null,"dimensions":null,"purposes":["comms"],"wikipedia_slug":null,"has_3d_model":false,"image_url":null,"decayed_at":null,"tle_current":{"epoch":"2026-05-24T15:29:33.763488Z","epoch_age_seconds":115758,"freshness":"FRESH","line1":"1 62895U 25024S   26144.64552967  .00013372  00000+0  49450-3 0  9994","line2":"2 62895  43.0006 256.2982 0001389 270.0006  90.0687 15.27583682 73888","mean_motion":15.27583682,"eccentricity":0.0001389,"inclination_deg":43.0006,"raan_deg":256.2982,"arg_perigee_deg":270.0006,"mean_anomaly_deg":90.0687,"bstar":0.0004945,"rev_number":7388,"period_min":94.266521498493,"perigee_km":482.08505361187,"apogee_km":483.99108804654,"semimajor_km":6861.1750708292,"source":"CELESTRAK","updated_at":"2026-05-25T13:38:19.791741Z"}}}